Wind_Speed
30 30 28 25 24 26 28 31 29 27 27 30 32 33 35 37 39 41 40 39 39 37 41 42 41 43 47 45 45 44 42 46 40 44 50 47 52 57 57 61 63 64 64
31 21 15 15 20 25 27 29 26 27 28 30 33 34 35 39 41 42 41 38 39 40 41 40 39 46 44 43 43 39 36 39 43 47 42 47 54 56 56 59 60 57 56
18 18 15 18 21 27 29 28 28 29 32 33 33 35 36 40 42 44 39 40 42 42 41 39 39 44 42 44 39 33 34 43 44 43 48 54 50 52 54 54 53 50 44
26 27 28 20 27 32 32 28 31 33 34 34 36 39 39 41 43 42 41 43 42 42 41 41 41 41 42 38 44 40 40 40 41 43 48 47 48 49 48 47 43 37 38
31 32 30 31 31 31 32 31 33 35 35 37 37 40 42 41 38 39 42 42 41 38 36 41 44 44 43 44 42 37 42 41 39 44 42 44 46 43 41 37 35 35 36
37 37 38 37 34 30 33 36 36 37 36 38 36 32 38 35 37 40 41 41 36 38 37 47 45 42 38 36 35 38 41 36 40 38 40 41 38 36 33 33 33 34 34
41 41 44 47 45 39 40 43 42 42 41 40 38 35 35 37 40 42 41 40 35 45 36 38 37 45 37 38 33 36 33 36 35 36 37 33 33 29 30 32 32 33 34
46 44 45 51 50 50 45 45 42 48 47 43 39 36 37 38 39 37 42 42 42 41 40 38 45 40 33 29 32 35 29 31 32 34 32 29 27 25 27 29 31 33 37
46 51 51 53 56 53 52 47 50 42 43 43 42 38 37 38 37 36 35 36 42 39 37 47 37 34 26 29 26 26 29 29 30 29 27 26 22 24 26 28 31 32 34
54 50 54 57 63 55 54 57 47 44 38 42 42 39 37 39 37 35 39 27 40 40 33 36 32 24 26 26 25 27 28 26 27 24 24 20 20 24 26 29 31 32 33
66 63 62 63 61 61 57 54 51 50 43 43 41 41 40 37 36 34 35 39 42 38 40 42 39 36 30 27 26 27 24 24 23 21 19 15 20 23 25 28 31 34 35
73 68 74 68 65 59 57 57 46 48 44 44 41 39 39 37 40 36 36 36 36 37 47 45 42 37 30 27 24 23 22 21 20 18 13 13 17 22 26 30 32 35 36
74 85 88 65 51 55 54 49 45 47 44 43 41 39 39 35 35 35 39 37 48 39 40 40 37 31 26 25 22 22 20 19 17 15 10 14 18 23 27 29 32 36 37
72 39 27 52 55 51 49 46 44 44 44 43 41 40 37 33 32 42 38 38 35 39 34 34 33 32 27 25 22 21 19 18 15 12 10 15 18 22 26 26 31 35 37
59 33 32 43 47 44 45 44 42 44 43 43 42 41 37 35 34 37 41 41 43 46 35 33 37 29 26 24 22 21 18 17 14 9 10 14 17 22 23 24 27 32 37
49 43 31 30 35 41 45 47 43 44 45 42 40 39 40 38 36 39 44 41 40 41 33 34 32 26 25 23 22 21 18 17 14 9 9 12 16 20 20 21 24 29 33
41 35 31 29 32 32 39 37 40 43 43 41 41 40 39 38 37 39 35 39 38 31 30 32 28 26 25 23 22 23 19 18 16 11 8 12 15 17 17 18 21 27 32
45 39 36 29 31 36 35 37 37 40 43 40 42 42 40 36 40 36 36 36 35 30 31 31 28 27 25 23 23 25 21 20 20 13 9 11 14 14 15 16 19 25 30
35 34 25 24 28 22 26 30 34 38 43 41 38 36 33 35 37 39 38 33 30 31 31 30 29 27 25 25 26 26 23 23 22 16 14 13 13 13 15 16 20 24 28
54 41 36 25 23 21 25 31 34 34 32 29 31 29 29 31 36 37 33 33 36 33 29 29 27 26 27 27 28 26 25 24 24 20 18 15 15 15 16 16 19 23 25
54 51 48 34 30 29 30 32 35 33 33 31 30 31 33 34 35 32 34 37 36 30 28 31 31 29 30 30 28 27 27 26 24 21 20 18 17 16 17 16 18 22 24
20 25 25 22 23 28 30 37 38 37 28 28 31 30 29 30 34 38 34 28 27 26 26 28 31 31 35 30 28 29 28 27 24 23 20 18 18 18 16 16 17 20 22
13 21 24 24 26 27 32 31 34 34 29 30 30 29 26 29 35 34 30 23 20 23 27 27 30 32 33 30 28 30 29 28 26 24 21 18 20 18 16 17 17 20 24
20 18 18 23 29 34 29 26 27 35 30 24 22 24 27 27 26 26 25 28 30 27 25 26 30 36 32 35 30 31 31 30 27 25 22 21 20 18 17 18 16 19 21
15 16 18 21 22 22 22 21 29 26 22 23 20 23 25 24 28 29 32 30 27 28 26 26 32 36 39 32 33 32 34 35 32 27 23 23 22 21 21 21 22 20 20
10 12 15 16 18 21 24 28 28 28 29 27 21 28 35 31 33 32 31 31 29 27 27 30 34 40 36 33 36 36 36 35 34 30 28 28 25 24 24 24 25 22 23
Wind_Direction
289 280 271 267 271 271 269 267 270 272 274 272 273 277 280 286 288 290 293 297 300 303 301 303 306 309 311 308 312 307 299 304 309 308 305 300 299 305 305 304 303 304 305
290 260 273 283 278 275 270 267 269 273 275 274 275 277 281 284 286 288 291 298 300 299 299 301 304 303 304 307 311 311 308 310 309 309 306 302 299 304 307 306 305 305 306
280 259 284 294 277 268 266 268 273 273 272 275 279 280 279 281 286 288 296 300 299 298 299 299 295 300 306 312 316 306 307 311 310 308 306 303 304 307 309 308 310 310 313
281 272 273 298 282 272 274 275 275 277 280 284 284 282 281 284 287 291 294 297 298 299 299 296 300 306 304 305 311 309 309 311 305 306 302 304 310 312 312 313 320 327 328
287 281 288 279 285 277 284 289 288 290 292 289 291 289 282 279 284 287 291 297 298 300 292 301 303 306 305 301 305 306 308 309 307 301 306 312 314 314 319 325 331 336 334
286 286 282 280 287 282 287 287 294 296 291 290 293 310 291 286 289 291 295 300 291 303 283 299 299 307 309 306 305 300 305 308 302 309 313 314 313 323 329 336 343 340 337
278 275 276 280 283 289 289 294 291 291 294 293 296 299 296 293 292 292 295 290 290 305 288 294 296 293 301 303 298 304 307 305 307 310 313 315 324 334 338 343 345 341 343
274 278 275 277 278 285 279 273 287 292 293 296 295 292 291 290 291 291 293 297 311 309 278 303 299 304 306 301 304 305 301 304 309 311 313 321 328 342 343 347 346 345 349
270 274 275 271 274 274 257 293 283 277 289 292 292 293 293 292 293 295 298 301 290 301 276 294 291 303 296 307 307 301 302 305 308 312 317 323 339 342 349 350 347 350 352
260 264 268 269 272 269 271 272 275 290 292 294 293 292 293 291 292 294 283 267 300 293 286 297 316 303 303 301 303 301 299 304 309 312 317 330 345 349 353 351 350 348 347
264 257 249 256 261 263 274 281 282 286 289 288 291 291 291 287 286 288 283 257 291 278 277 309 310 311 310 303 294 295 296 305 306 311 318 341 354 352 351 351 354 353 347
265 260 259 234 249 258 268 272 276 279 284 289 290 289 287 290 280 267 291 276 282 295 276 305 306 307 309 294 293 288 298 303 303 309 324 348 351 346 349 350 351 352 351
269 265 253 238 239 249 260 267 274 278 286 289 289 289 285 291 274 265 281 284 277 289 292 299 302 305 298 292 287 289 295 298 297 307 325 344 345 345 345 348 350 348 351
262 261 240 220 235 238 254 261 271 282 289 290 290 289 289 286 282 288 267 298 274 292 302 300 301 303 291 285 283 284 289 292 290 306 325 340 340 342 340 346 350 348 353
268 252 228 204 218 242 253 264 275 284 286 287 286 284 279 277 277 277 276 285 284 286 293 295 299 294 282 278 276 275 282 282 281 303 329 335 336 341 342 348 350 349 353
262 234 221 225 235 247 255 265 276 280 278 279 280 279 279 279 275 264 267 281 279 282 293 289 289 279 272 269 270 269 272 273 271 288 315 327 336 340 342 346 348 351 353
239 238 233 228 231 245 260 268 269 270 273 275 275 275 273 279 254 272 270 272 279 291 284 285 278 268 263 263 265 266 262 261 259 271 303 324 331 336 338 338 345 348 351
258 252 252 249 252 257 264 264 265 269 271 274 278 272 271 259 250 266 270 273 277 276 282 282 269 263 256 254 263 258 255 254 253 261 287 311 319 328 330 325 342 346 348
239 239 255 249 244 257 262 265 269 272 272 273 268 264 257 254 271 276 278 270 269 276 278 273 267 255 252 252 258 253 251 253 254 253 272 296 305 311 321 325 333 335 341
249 247 262 267 269 264 261 266 270 272 264 262 262 260 263 267 269 270 267 260 272 277 271 265 259 248 245 249 253 246 247 247 252 252 266 282 292 292 304 325 335 337 340
265 248 239 247 265 270 268 266 262 254 254 259 262 267 272 270 268 272 270 260 272 270 265 264 251 243 241 243 247 245 243 242 246 250 255 271 282 289 297 306 322 332 333
267 282 287 263 260 263 260 255 254 251 259 267 266 266 262 255 260 262 261 269 273 268 268 269 259 242 240 238 242 246 242 246 249 250 253 267 277 286 294 301 315 323 324
244 251 247 246 250 240 235 241 251 247 262 260 261 258 252 251 254 260 266 253 273 270 272 274 256 235 237 236 240 241 239 243 248 251 256 265 275 277 282 298 307 314 314
229 240 245 245 242 243 254 259 249 243 240 249 263 256 246 247 248 249 253 261 265 270 268 270 246 240 226 232 235 236 236 243 246 250 257 266 271 272 276 286 292 310 313
240 237 237 237 235 235 237 238 240 258 263 269 262 258 253 250 249 257 269 270 261 264 269 264 251 230 227 226 237 236 235 240 246 248 256 263 265 274 273 275 282 301 304
238 239 239 248 249 244 241 247 250 253 254 258 241 266 264 259 253 259 263 264 263 263 268 261 240 228 221 233 237 236 236 238 243 248 253 259 265 273 278 278 279 287 294
Height
5840 5838 5838 5836 5835 5836 5837 5836 5833 5831 5831 5831 5829 5826 5823 5820 5818 5816 5813 5811 5808 5804 5798 5794 5790 5785 5781 5775 5769 5763 5757 5752 5746 5740 5734 5728 5721 5714 5706 5700 5692 5682 5673
5832 5831 5830 5828 5830 5830 5830 5828 5825 5825 5824 5824 5822 5818 5815 5813 5810 5808 5805 5803 5799 5794 5789 5785 5780 5775 5771 5765 5759 5753 5747 5742 5736 5731 5725 5717 5711 5704 5696 5689 5680 5670 5660
5825 5825 5824 5822 5823 5822 5820 5819 5818 5818 5817 5817 5812 5810 5808 5804 5800 5799 5797 5794 5789 5783 5779 5775 5769 5764 5760 5754 5750 5744 5738 5733 5726 5722 5717 5710 5702 5695 5686 5678 5669 5659 5650
5816 5816 5815 5814 5815 5812 5810 5811 5811 5809 5809 5805 5803 5802 5799 5796 5793 5791 5788 5784 5779 5774 5770 5764 5759 5756 5751 5746 5740 5735 5730 5724 5719 5713 5706 5701 5693 5685 5678 5669 5658 5648 5641
5806 5805 5805 5806 5806 5803 5801 5800 5800 5799 5796 5794 5794 5794 5790 5787 5785 5783 5779 5775 5770 5765 5757 5752 5750 5746 5742 5737 5731 5726 5721 5715 5711 5705 5698 5692 5684 5678 5670 5661 5652 5644 5637
5797 5796 5794 5797 5797 5795 5792 5792 5791 5790 5789 5787 5785 5780 5777 5777 5776 5774 5770 5765 5757 5754 5750 5743 5743 5738 5733 5727 5721 5717 5712 5707 5702 5696 5690 5684 5678 5671 5662 5654 5646 5641 5635
5787 5787 5785 5784 5783 5784 5781 5779 5779 5780 5778 5776 5774 5771 5770 5769 5766 5763 5758 5752 5750 5744 5736 5734 5733 5728 5723 5718 5712 5708 5703 5699 5694 5689 5684 5678 5672 5663 5657 5649 5642 5637 5630
5775 5776 5775 5771 5771 5773 5768 5765 5766 5767 5765 5765 5763 5762 5760 5758 5756 5752 5746 5736 5735 5734 5730 5727 5726 5721 5713 5709 5704 5700 5695 5692 5688 5683 5679 5672 5666 5659 5652 5645 5639 5633 5625
5762 5764 5764 5761 5761 5758 5734 5744 5752 5754 5755 5755 5753 5751 5749 5745 5744 5741 5736 5732 5731 5727 5723 5718 5717 5710 5704 5700 5696 5693 5690 5686 5682 5678 5673 5668 5660 5656 5648 5642 5637 5630 5623
5747 5751 5751 5749 5744 5747 5744 5745 5737 5743 5743 5743 5742 5741 5739 5735 5733 5731 5724 5718 5721 5718 5716 5712 5705 5700 5695 5693 5690 5687 5685 5681 5677 5673 5669 5663 5657 5652 5646 5642 5636 5629 5622
5731 5732 5728 5728 5729 5727 5729 5728 5728 5730 5731 5732 5730 5730 5727 5724 5723 5720 5715 5708 5712 5709 5704 5699 5697 5692 5689 5686 5684 5681 5678 5675 5672 5668 5664 5658 5652 5649 5645 5639 5633 5626 5620
5711 5709 5709 5693 5706 5714 5716 5718 5716 5719 5719 5720 5720 5718 5715 5711 5708 5702 5706 5705 5703 5699 5696 5692 5689 5685 5682 5679 5677 5675 5672 5670 5668 5664 5660 5654 5650 5646 5642 5636 5630 5624 5617
5686 5683 5661 5636 5671 5695 5701 5704 5705 5706 5706 5707 5706 5705 5704 5700 5696 5692 5699 5694 5692 5691 5689 5685 5681 5677 5675 5673 5671 5669 5666 5665 5663 5660 5655 5650 5647 5643 5639 5633 5627 5620 5614
5670 5655 5637 5651 5668 5678 5686 5689 5691 5691 5691 5691 5692 5692 5691 5692 5690 5687 5686 5684 5684 5683 5680 5677 5673 5670 5668 5666 5664 5663 5661 5660 5658 5655 5651 5647 5644 5641 5637 5631 5625 5619 5612
5651 5648 5615 5631 5651 5664 5669 5671 5674 5675 5678 5678 5679 5681 5681 5680 5680 5679 5679 5676 5674 5674 5671 5668 5665 5662 5661 5659 5658 5658 5656 5655 5654 5650 5647 5644 5641 5638 5635 5629 5624 5619 5612
5636 5634 5633 5639 5642 5649 5655 5660 5662 5663 5667 5667 5668 5670 5669 5670 5669 5669 5668 5666 5665 5664 5661 5659 5656 5654 5653 5652 5652 5652 5651 5650 5649 5646 5643 5640 5638 5635 5632 5628 5623 5619 5612
5627 5628 5628 5630 5632 5637 5642 5646 5651 5653 5656 5656 5656 5657 5657 5659 5657 5658 5656 5656 5655 5653 5650 5648 5647 5646 5645 5646 5646 5646 5645 5645 5644 5641 5638 5636 5634 5632 5630 5625 5622 5618 5613
5618 5620 5622 5620 5622 5627 5630 5636 5639 5643 5644 5645 5645 5646 5646 5645 5647 5647 5646 5645 5644 5642 5640 5639 5638 5637 5638 5638 5640 5640 5639 5639 5639 5636 5633 5631 5630 5629 5626 5623 5620 5616 5611
5607 5610 5612 5611 5614 5618 5621 5625 5627 5629 5632 5632 5632 5634 5635 5636 5637 5637 5636 5635 5634 5631 5630 5630 5629 5628 5630 5632 5633 5634 5633 5633 5633 5631 5629 5627 5626 5624 5623 5620 5617 5615 5610
5593 5598 5601 5604 5608 5609 5611 5614 5616 5619 5620 5621 5625 5625 5624 5626 5626 5625 5625 5626 5624 5621 5620 5620 5619 5619 5621 5624 5625 5626 5626 5627 5627 5626 5625 5623 5621 5620 5619 5616 5614 5612 5609
5582 5588 5592 5598 5601 5601 5602 5604 5605 5607 5611 5611 5612 5611 5612 5613 5613 5614 5614 5614 5613 5610 5610 5610 5610 5611 5613 5615 5618 5619 5620 5620 5620 5620 5619 5618 5616 5614 5614 5612 5610 5609 5606
5574 5576 5580 5585 5589 5591 5593 5596 5598 5599 5599 5600 5601 5601 5602 5602 5601 5603 5603 5602 5602 5601 5602 5601 5601 5602 5605 5608 5609 5611 5613 5613 5613 5614 5612 5611 5610 5608 5608 5607 5606 5605 5603
5563 5566 5570 5574 5578 5580 5583 5585 5588 5589 5588 5589 5589 5591 5592 5592 5593 5592 5591 5592 5593 5593 5594 5592 5591 5594 5596 5600 5602 5604 5605 5606 5605 5606 5606 5605 5604 5603 5602 5602 5601 5600 5598
5557 5559 5562 5566 5570 5571 5572 5575 5578 5579 5578 5577 5578 5581 5583 5583 5582 5581 5581 5582 5583 5583 5583 5582 5582 5584 5587 5589 5592 5595 5597 5598 5598 5599 5599 5599 5598 5596 5596 5596 5596 5594 5592
5551 5553 5555 5558 5560 5562 5565 5567 5568 5567 5568 5569 5569 5572 5573 5573 5571 5571 5572 5572 5572 5573 5572 5572 5573 5575 5577 5580 5583 5585 5587 5588 5590 5591 5591 5591 5591 5590 5589 5589 5589 5588 5586
5548 5549 5552 5553 5555 5556 5559 5560 5561 5560 5560 5561 5563 5564 5561 5561 5561 5561 5562 5563 5563 5563 5562 5562 5562 5564 5567 5571 5574 5576 5577 5579 5581 5583 5583 5584 5584 5584 5583 5582 5581 5580 5580